| time (UTC) | temp F | wind direction | speed knots | gust knots | rain 1hr in | rain 24hr in | rain mn in | humidity % | barometer mb |
| 20260504015011 | 61 | 0 | 0.0 | 0.9 | 0.00 | 0.05 | 0.05 | 60 | 1005.2 |
| 20260504014530 | 61 | 306 | 0.0 | 0.9 | 0.00 | 0.05 | 0.05 | 59 | 1005.1 |
| 20260504014014 | 61 | 295 | 0.0 | 0.9 | 0.00 | 0.05 | 0.05 | 59 | 1005.1 |
| 20260504013516 | 61 | 295 | 0.0 | 0.9 | 0.00 | 0.05 | 0.05 | 59 | 1005.0 |
| 20260504013035 | 61 | 0 | 0.0 | 0.9 | 0.00 | 0.05 | 0.05 | 58 | 1005.1 |
| 20260504012513 | 62 | 0 | 0.0 | 0.9 | 0.00 | 0.05 | 0.05 | 58 | 1005.0 |
| 20260504012013 | 62 | 295 | 0.0 | 0.9 | 0.00 | 0.05 | 0.05 | 58 | 1005.1 |
| 20260504011528 | 62 | 0 | 0.0 | 0.9 | 0.00 | 0.05 | 0.05 | 57 | 1005.0 |
| 20260504011016 | 63 | 0 | 0.0 | 0.9 | 0.00 | 0.05 | 0.05 | 56 | 1005.1 |
| 20260504010512 | 63 | 0 | 0.0 | 0.9 | 0.00 | 0.05 | 0.05 | 56 | 1005.0 |
| 20260504010028 | 63 | 289 | 0.0 | 0.9 | 0.00 | 0.05 | 0.05 | 55 | 1004.9 |
| 20260504005513 | 63 | 0 | 0.0 | 0.9 | 0.00 | 0.05 | 0.05 | 55 | 1005.0 |
| 20260504005011 | 64 | 282 | 0.0 | 0.9 | 0.00 | 0.05 | 0.05 | 54 | 1004.9 |
| 20260504004539 | 64 | 275 | 0.0 | 1.7 | 0.00 | 0.05 | 0.05 | 54 | 1004.9 |
| 20260504004013 | 64 | 0 | 0.0 | 1.7 | 0.00 | 0.05 | 0.05 | 53 | 1005.0 |
| 20260504003513 | 65 | 250 | 0.0 | 0.9 | 0.00 | 0.05 | 0.05 | 53 | 1005.0 |
| 20260504003030 | 65 | 284 | 0.0 | 0.9 | 0.00 | 0.05 | 0.05 | 52 | 1005.0 |
| 20260504002512 | 65 | 0 | 0.0 | 2.6 | 0.00 | 0.05 | 0.05 | 51 | 1005.0 |
| 20260504002012 | 66 | 0 | 0.9 | 2.6 | 0.00 | 0.05 | 0.05 | 50 | 1005.1 |
| 20260504001535 | 66 | 278 | 0.9 | 2.6 | 0.00 | 0.05 | 0.05 | 50 | 1005.1 |
| 20260504001013 | 66 | 285 | 0.9 | 2.6 | 0.00 | 0.05 | 0.05 | 49 | 1005.0 |
| 20260504000513 | 67 | 302 | 0.9 | 2.6 | 0.00 | 0.05 | 0.05 | 49 | 1005.0 |
| 20260504000031 | 67 | 294 | 0.0 | 1.7 | 0.00 | 0.05 | 0.05 | 49 | 1005.0 |
| 20260503235513 | 67 | 281 | 0.0 | 1.7 | 0.00 | 0.05 | 0.05 | 49 | 1004.9 |
| 20260503235013 | 67 | 274 | 0.9 | 3.5 | 0.00 | 0.05 | 0.05 | 47 | 1005.1 |
| 20260503234534 | 68 | 284 | 0.9 | 3.5 | 0.00 | 0.05 | 0.05 | 47 | 1005.0 |
| 20260503234011 | 68 | 0 | 0.9 | 3.5 | 0.00 | 0.05 | 0.05 | 47 | 1005.1 |
| 20260503233514 | 68 | 280 | 0.0 | 2.6 | 0.00 | 0.05 | 0.05 | 48 | 1005.0 |
| 20260503233027 | 68 | 276 | 0.9 | 2.6 | 0.00 | 0.05 | 0.05 | 46 | 1004.9 |
| 20260503232513 | 68 | 205 | 0.9 | 2.6 | 0.00 | 0.05 | 0.05 | 46 | 1005.0 |
| 20260503232014 | 68 | 0 | 0.0 | 2.6 | 0.00 | 0.05 | 0.05 | 46 | 1005.0 |
| 20260503231532 | 68 | 293 | 0.9 | 2.6 | 0.00 | 0.05 | 0.05 | 46 | 1005.1 |
| 20260503231013 | 69 | 293 | 0.9 | 4.3 | 0.00 | 0.05 | 0.05 | 46 | 1005.1 |
| 20260503230512 | 68 | 274 | 0.0 | 4.3 | 0.00 | 0.05 | 0.05 | 47 | 1005.1 |
| 20260503230030 | 68 | 252 | 0.9 | 3.5 | 0.00 | 0.05 | 0.05 | 46 | 1005.1 |
| 20260503225513 | 68 | 281 | 0.9 | 3.5 | 0.00 | 0.05 | 0.05 | 47 | 1005.2 |
| 20260503225011 | 67 | 0 | 0.0 | 1.7 | 0.00 | 0.05 | 0.05 | 47 | 1005.4 |
| 20260503224529 | 67 | 276 | 0.0 | 1.7 | 0.00 | 0.05 | 0.05 | 47 | 1005.2 |
| 20260503224013 | 66 | 275 | 0.0 | 3.5 | 0.00 | 0.05 | 0.05 | 47 | 1005.5 |
| 20260503223512 | 66 | 274 | 0.0 | 3.5 | 0.00 | 0.05 | 0.05 | 47 | 1005.4 |
| 20260503223028 | 67 | 274 | 0.9 | 3.5 | 0.00 | 0.05 | 0.05 | 47 | 1005.5 |
| 20260503222512 | 67 | 297 | 0.0 | 2.6 | 0.00 | 0.05 | 0.05 | 47 | 1005.5 |
| 20260503222013 | 67 | 0 | 0.9 | 2.6 | 0.00 | 0.05 | 0.05 | 47 | 1005.6 |
| 20260503221534 | 67 | 276 | 0.0 | 1.7 | 0.00 | 0.05 | 0.05 | 47 | 1005.7 |
| 20260503221010 | 67 | 0 | 0.0 | 1.7 | 0.00 | 0.05 | 0.05 | 46 | 1005.6 |
| 20260503220511 | 67 | 282 | 0.0 | 1.7 | 0.00 | 0.05 | 0.05 | 46 | 1005.7 |
| 20260503220037 | 67 | 130 | 0.0 | 1.7 | 0.00 | 0.05 | 0.05 | 46 | 1005.7 |
| 20260503215513 | 67 | 0 | 0.0 | 1.7 | 0.00 | 0.05 | 0.05 | 47 | 1005.9 |
| 20260503215012 | 67 | 0 | 0.0 | 2.6 | 0.00 | 0.05 | 0.05 | 47 | 1005.8 |
| 20260503214546 | 66 | 281 | 0.0 | 2.6 | 0.00 | 0.05 | 0.05 | 48 | 1005.8 |
| 20260503214011 | 66 | 262 | 0.0 | 1.7 | 0.00 | 0.05 | 0.05 | 49 | 1005.9 |
| 20260503213511 | 66 | 276 | 0.0 | 1.7 | 0.00 | 0.05 | 0.05 | 47 | 1006.1 |
| 20260503213034 | 66 | 0 | 0.0 | 3.5 | 0.00 | 0.05 | 0.05 | 47 | 1006.1 |
| 20260503212511 | 67 | 262 | 0.9 | 3.5 | 0.00 | 0.05 | 0.05 | 45 | 1006.1 |
| 20260503212018 | 67 | 288 | 0.9 | 5.2 | 0.00 | 0.05 | 0.05 | 46 | 1006.3 |
| 20260503211531 | 66 | 281 | 0.9 | 5.2 | 0.00 | 0.05 | 0.05 | 47 | 1006.4 |
| 20260503211010 | 67 | 278 | 0.9 | 3.5 | 0.00 | 0.05 | 0.05 | 48 | 1006.5 |
| 20260503210510 | 67 | 286 | 0.9 | 3.5 | 0.00 | 0.05 | 0.05 | 46 | 1006.5 |
| 20260503210028 | 66 | 275 | 0.9 | 3.5 | 0.00 | 0.05 | 0.05 | 47 | 1006.6 |
| 20260503205517 | 66 | 272 | 0.9 | 2.6 | 0.00 | 0.05 | 0.05 | 45 | 1006.8 |
| 20260503205013 | 65 | 265 | 0.9 | 4.3 | 0.00 | 0.05 | 0.05 | 46 | 1006.9 |
| 20260503204532 | 64 | 276 | 0.9 | 4.3 | 0.00 | 0.05 | 0.05 | 47 | 1006.9 |
| 20260503204011 | 64 | 288 | 1.7 | 4.3 | 0.00 | 0.05 | 0.05 | 46 | 1007.1 |
| 20260503203513 | 64 | 285 | 1.7 | 4.3 | 0.00 | 0.05 | 0.05 | 45 | 1007.3 |
| 20260503203031 | 65 | 277 | 0.9 | 4.3 | 0.00 | 0.05 | 0.05 | 44 | 1007.3 |
| 20260503202518 | 64 | 274 | 0.9 | 4.3 | 0.00 | 0.05 | 0.05 | 47 | 1007.3 |
| 20260503202014 | 63 | 282 | 0.9 | 4.3 | 0.00 | 0.05 | 0.05 | 47 | 1007.5 |
| 20260503201530 | 63 | 274 | 0.9 | 4.3 | 0.00 | 0.05 | 0.05 | 46 | 1007.6 |
| 20260503201012 | 64 | 301 | 1.7 | 5.2 | 0.00 | 0.05 | 0.05 | 45 | 1007.6 |
| 20260503200512 | 65 | 294 | 1.7 | 5.2 | 0.00 | 0.05 | 0.05 | 45 | 1007.6 |
| 20260503200031 | 65 | 274 | 0.9 | 4.3 | 0.00 | 0.05 | 0.05 | 49 | 1007.6 |
| 20260503195511 | 65 | 278 | 0.9 | 4.3 | 0.00 | 0.05 | 0.05 | 48 | 1007.6 |
| 20260503195013 | 64 | 275 | 0.9 | 5.2 | 0.00 | 0.05 | 0.05 | 50 | 1007.6 |
| 20260503194532 | 64 | 294 | 1.7 | 5.2 | 0.00 | 0.05 | 0.05 | 48 | 1007.7 |
| 20260503194013 | 64 | 253 | 0.9 | 2.6 | 0.00 | 0.05 | 0.05 | 49 | 1007.8 |
| 20260503193512 | 64 | 0 | 0.0 | 2.6 | 0.00 | 0.05 | 0.05 | 53 | 1007.8 |
| 20260503193032 | 63 | 289 | 0.0 | 2.6 | 0.00 | 0.05 | 0.05 | 53 | 1007.9 |
| 20260503192514 | 62 | 284 | 0.9 | 2.6 | 0.00 | 0.05 | 0.05 | 56 | 1008.0 |
| 20260503192013 | 61 | 278 | 0.9 | 1.7 | 0.00 | 0.05 | 0.05 | 58 | 1008.1 |
| 20260503191529 | 61 | 283 | 0.0 | 1.7 | 0.00 | 0.05 | 0.05 | 57 | 1008.2 |
| 20260503191012 | 61 | 274 | 0.0 | 2.6 | 0.00 | 0.05 | 0.05 | 60 | 1008.2 |
| 20260503190513 | 60 | 287 | 0.0 | 2.6 | 0.00 | 0.05 | 0.05 | 64 | 1008.3 |
| 20260503190039 | 59 | 300 | 0.9 | 2.6 | 0.00 | 0.05 | 0.05 | 65 | 1008.4 |
| 20260503185513 | 58 | 288 | 0.0 | 2.6 | 0.00 | 0.05 | 0.05 | 67 | 1008.5 |
| 20260503185016 | 57 | 0 | 0.9 | 2.6 | 0.00 | 0.05 | 0.05 | 70 | 1008.7 |
| 20260503184531 | 57 | 290 | 0.0 | 1.7 | 0.00 | 0.05 | 0.05 | 72 | 1008.7 |
| 20260503184012 | 56 | 271 | 0.0 | 1.7 | 0.00 | 0.05 | 0.05 | 76 | 1008.8 |
| 20260503183512 | 55 | 286 | 0.0 | 0.9 | 0.00 | 0.05 | 0.05 | 78 | 1009.0 |
| 20260503183036 | 54 | 288 | 0.0 | 0.9 | 0.00 | 0.05 | 0.05 | 78 | 1009.0 |
| 20260503182512 | 54 | 1 | 0.0 | 0.9 | 0.00 | 0.05 | 0.05 | 80 | 1009.0 |
| 20260503182011 | 53 | 0 | 0.0 | 0.9 | 0.01 | 0.05 | 0.05 | 80 | 1009.1 |
| 20260503181552 | 52 | 0 | 0.0 | 0.9 | 0.01 | 0.05 | 0.05 | 82 | 1009.4 |
| 20260503181011 | 51 | 219 | 0.0 | 0.9 | 0.01 | 0.05 | 0.05 | 84 | 1009.4 |
| 20260503180513 | 51 | 0 | 0.0 | 0.9 | 0.01 | 0.05 | 0.05 | 85 | 1009.5 |
| 20260503180041 | 50 | 0 | 0.0 | 0.9 | 0.01 | 0.05 | 0.05 | 86 | 1009.6 |
| 20260503175516 | 50 | 0 | 0.0 | 0.9 | 0.01 | 0.05 | 0.05 | 85 | 1009.8 |
| 20260503175013 | 50 | 300 | 0.0 | 0.9 | 0.01 | 0.05 | 0.05 | 85 | 1010.2 |
| 20260503174531 | 49 | 0 | 0.0 | 1.7 | 0.02 | 0.05 | 0.05 | 85 | 1010.5 |
| 20260503174013 | 49 | 300 | 0.0 | 1.7 | 0.02 | 0.05 | 0.05 | 85 | 1010.8 |
| 20260503173513 | 49 | 0 | 0.0 | 1.7 | 0.02 | 0.05 | 0.05 | 86 | 1011.1 |
| 20260503173029 | 49 | 263 | 0.0 | 0.9 | 0.02 | 0.05 | 0.05 | 86 | 1011.2 |
| 20260503172510 | 49 | 210 | 0.0 | 2.6 | 0.01 | 0.04 | 0.04 | 86 | 1011.3 |
| 20260503172012 | 49 | 281 | 0.0 | 2.6 | 0.01 | 0.04 | 0.04 | 86 | 1011.5 |
| 20260503171530 | 49 | 0 | 0.0 | 2.6 | 0.01 | 0.04 | 0.04 | 86 | 1011.6 |
| 20260503171013 | 49 | 0 | 0.0 | 0.9 | 0.01 | 0.04 | 0.04 | 86 | 1011.5 |
| 20260503170513 | 49 | 279 | 0.0 | 1.7 | 0.02 | 0.04 | 0.04 | 86 | 1011.5 |
| 20260503151012 | 53 | 273 | 0.0 | 3.5 | 0.00 | 0.00 | 0.00 | 62 | 1012.7 |
| 20260503150514 | 53 | 335 | 0.9 | 3.5 | 0.00 | 0.00 | 0.00 | 62 | 1012.7 |
| 20260503131011 | 49 | 279 | 0.0 | 2.6 | 0.00 | 0.00 | 0.00 | 63 | 1013.5 |
| 20260503130510 | 49 | 275 | 0.9 | 2.6 | 0.00 | 0.00 | 0.00 | 64 | 1013.5 |
| 20260503110516 | 45 | 285 | 0.0 | 0.9 | 0.00 | 0.00 | 0.00 | 66 | 1013.0 |
| 20260503090513 | 44 | 0 | 0.0 | 0.9 | 0.00 | 0.00 | 0.00 | 65 | 1013.6 |
| 20260503081528 | 44 | 274 | 0.0 | 0.9 | 0.00 | 0.00 | 0.00 | 63 | 1013.9 |
| 20260503081014 | 44 | 0 | 0.0 | 0.9 | 0.00 | 0.00 | 0.00 | 63 | 1013.9 |
| 20260503080513 | 44 | 0 | 0.0 | 0.9 | 0.00 | 0.00 | 0.00 | 64 | 1013.8 |
| 20260503072512 | 44 | 0 | 0.0 | 0.0 | 0.00 | 0.00 | 0.00 | 62 | 1013.9 |
| 20260503072014 | 44 | 0 | 0.0 | 0.0 | 0.00 | 0.00 | 0.00 | 62 | 1013.9 |
| 20260503071530 | 44 | 0 | 0.0 | 0.0 | 0.00 | 0.00 | 0.00 | 62 | 1013.9 |
| 20260503071013 | 44 | 0 | 0.0 | 0.0 | 0.00 | 0.00 | 0.00 | 61 | 1014.0 |
| 20260503070514 | 44 | 0 | 0.0 | 0.9 | 0.00 | 0.00 | 0.00 | 61 | 1014.0 |
| 20260503055012 | 45 | 0 | 0.0 | 0.0 | 0.00 | 0.00 | 0.00 | 59 | 1014.6 |
| 20260503054536 | 45 | 0 | 0.0 | 0.0 | 0.00 | 0.00 | 0.00 | 58 | 1014.7 |
| 20260503054012 | 45 | 0 | 0.0 | 0.9 | 0.00 | 0.00 | 0.00 | 58 | 1014.7 |
| 20260503053512 | 45 | 0 | 0.0 | 0.9 | 0.00 | 0.00 | 0.00 | 58 | 1014.7 |
| 20260503053028 | 45 | 0 | 0.0 | 0.0 | 0.00 | 0.00 | 0.00 | 58 | 1014.8 |
| 20260503052511 | 45 | 0 | 0.0 | 0.0 | 0.00 | 0.00 | 0.00 | 58 | 1014.9 |
| 20260503052012 | 45 | 0 | 0.0 | 0.0 | 0.00 | 0.00 | 0.00 | 58 | 1014.9 |
| 20260503051533 | 45 | 0 | 0.0 | 0.0 | 0.00 | 0.00 | 0.00 | 58 | 1015.0 |
| 20260503051011 | 45 | 0 | 0.0 | 0.0 | 0.00 | 0.00 | 0.00 | 58 | 1015.0 |
| 20260503050513 | 45 | 0 | 0.0 | 0.9 | 0.00 | 0.00 | 0.00 | 58 | 1015.1 |
| 20260503050032 | 45 | 0 | 0.0 | 0.9 | 0.00 | 0.00 | 0.00 | 58 | 1015.0 |
| 20260503045516 | 45 | 0 | 0.0 | 0.0 | 0.00 | 0.00 | 0.00 | 59 | 1015.1 |
| 20260503045012 | 45 | 0 | 0.0 | 0.0 | 0.00 | 0.00 | 0.00 | 60 | 1015.1 |
| 20260503044530 | 45 | 0 | 0.0 | 0.0 | 0.00 | 0.00 | 0.00 | 58 | 1014.9 |
| 20260503044012 | 45 | 0 | 0.0 | 0.0 | 0.00 | 0.00 | 0.00 | 58 | 1015.0 |
| 20260503043513 | 45 | 0 | 0.0 | 0.0 | 0.00 | 0.00 | 0.00 | 58 | 1015.0 |
| 20260503043029 | 45 | 0 | 0.0 | 0.0 | 0.00 | 0.00 | 0.00 | 59 | 1015.1 |
| 20260503042514 | 45 | 0 | 0.0 | 0.0 | 0.00 | 0.00 | 0.00 | 59 | 1015.2 |
| 20260503042013 | 45 | 0 | 0.0 | 0.0 | 0.00 | 0.00 | 0.00 | 59 | 1015.2 |
| 20260503041534 | 45 | 0 | 0.0 | 0.0 | 0.00 | 0.00 | 0.00 | 58 | 1015.4 |
| 20260503041013 | 45 | 0 | 0.0 | 0.0 | 0.00 | 0.00 | 0.00 | 58 | 1015.3 |
| 20260503040519 | 46 | 0 | 0.0 | 0.0 | 0.00 | 0.00 | 0.00 | 60 | 1015.3 |
| 20260503040032 | 45 | 0 | 0.0 | 0.0 | 0.00 | 0.00 | 0.00 | 58 | 1015.3 |
| 20260503035513 | 46 | 0 | 0.0 | 0.0 | 0.00 | 0.00 | 0.00 | 59 | 1015.4 |
| 20260503035012 | 46 | 0 | 0.0 | 0.0 | 0.00 | 0.00 | 0.00 | 59 | 1015.3 |
| 20260503034530 | 46 | 0 | 0.0 | 0.0 | 0.00 | 0.00 | 0.00 | 58 | 1015.3 |
| 20260503034014 | 46 | 0 | 0.0 | 0.0 | 0.00 | 0.00 | 0.00 | 59 | 1015.4 |
| 20260503033511 | 46 | 0 | 0.0 | 0.0 | 0.00 | 0.00 | 0.00 | 58 | 1015.3 |
| 20260503033036 | 46 | 0 | 0.0 | 0.0 | 0.00 | 0.00 | 0.00 | 58 | 1015.4 |
| 20260503032511 | 46 | 0 | 0.0 | 0.0 | 0.00 | 0.00 | 0.00 | 58 | 1015.4 |
| 20260503032010 | 46 | 0 | 0.0 | 0.0 | 0.00 | 0.00 | 0.00 | 57 | 1015.4 |
| 20260503031532 | 46 | 0 | 0.0 | 0.0 | 0.00 | 0.00 | 0.00 | 57 | 1015.5 |
| 20260503031013 | 46 | 0 | 0.0 | 0.0 | 0.00 | 0.00 | 0.00 | 57 | 1015.4 |
| 20260503030513 | 46 | 0 | 0.0 | 0.0 | 0.00 | 0.00 | 0.00 | 57 | 1015.5 |
| 20260503030034 | 46 | 0 | 0.0 | 0.0 | 0.00 | 0.00 | 0.00 | 57 | 1015.5 |
| 20260503025512 | 46 | 0 | 0.0 | 0.0 | 0.00 | 0.00 | 0.00 | 57 | 1015.5 |
| 20260503025013 | 46 | 0 | 0.0 | 0.0 | 0.00 | 0.00 | 0.00 | 57 | 1015.5 |
| 20260503024537 | 46 | 0 | 0.0 | 0.0 | 0.00 | 0.00 | 0.00 | 58 | 1015.5 |
| 20260503024011 | 47 | 0 | 0.0 | 0.0 | 0.00 | 0.00 | 0.00 | 58 | 1015.4 |
| 20260503023512 | 47 | 0 | 0.0 | 0.0 | 0.00 | 0.00 | 0.00 | 57 | 1015.5 |
| 20260503023028 | 47 | 0 | 0.0 | 0.0 | 0.00 | 0.00 | 0.00 | 56 | 1015.4 |
| 20260503022512 | 47 | 0 | 0.0 | 0.0 | 0.00 | 0.00 | 0.00 | 56 | 1015.3 |
| 20260503022012 | 47 | 0 | 0.0 | 0.0 | 0.00 | 0.00 | 0.00 | 56 | 1015.2 |
| 20260503021529 | 47 | 0 | 0.0 | 0.0 | 0.00 | 0.00 | 0.00 | 56 | 1015.3 |
| 20260503021011 | 47 | 0 | 0.0 | 0.0 | 0.00 | 0.00 | 0.00 | 55 | 1015.3 |
| 20260503020514 | 48 | 0 | 0.0 | 0.0 | 0.00 | 0.00 | 0.00 | 55 | 1015.2 |
| 20260503020030 | 48 | 0 | 0.0 | 0.0 | 0.00 | 0.00 | 0.00 | 55 | 1015.3 |
| 20260503015516 | 48 | 0 | 0.0 | 0.0 | 0.00 | 0.00 | 0.00 | 55 | 1015.2 |